| time (UTC) | temp F | wind direction | speed MPH | gust MPH | rain 1hr in | rain 24hr in | rain mn in | humidity % | barometer mb |
| 20260505234749 | 74 | 234 | 0.0 | 2.0 | 0.00 | 0.00 | 0.00 | 39 | 1012.0 |
| 20260505234247 | 74 | 238 | 3.0 | 7.0 | 0.00 | 0.00 | 0.00 | 39 | 1012.0 |
| 20260505233743 | 75 | 201 | 4.0 | 8.0 | 0.00 | 0.00 | 0.00 | 37 | 1012.0 |
| 20260505233242 | 75 | 171 | 3.0 | 5.0 | 0.00 | 0.00 | 0.00 | 37 | 1012.0 |
| 20260505232739 | 75 | 179 | 5.0 | 10.0 | 0.00 | 0.00 | 0.00 | 36 | 1012.0 |
| 20260505232236 | 75 | 219 | 7.0 | 12.0 | 0.00 | 0.00 | 0.00 | 36 | 1012.0 |
| 20260505231732 | 75 | 208 | 7.0 | 17.0 | 0.00 | 0.00 | 0.00 | 35 | 1012.0 |
| 20260505231231 | 76 | 194 | 4.0 | 9.0 | 0.00 | 0.00 | 0.00 | 35 | 1012.0 |
| 20260505230729 | 76 | 198 | 4.0 | 6.0 | 0.00 | 0.00 | 0.00 | 34 | 1012.0 |
| 20260505230226 | 76 | 243 | 2.0 | 5.0 | 0.00 | 0.00 | 0.00 | 34 | 1012.0 |
| 20260505225722 | 77 | 198 | 6.0 | 11.0 | 0.00 | 0.00 | 0.00 | 32 | 1012.0 |
| 20260505225219 | 77 | 220 | 6.0 | 8.0 | 0.00 | 0.00 | 0.00 | 31 | 1012.3 |
| 20260505224715 | 77 | 202 | 9.0 | 18.0 | 0.00 | 0.00 | 0.00 | 30 | 1012.3 |
| 20260505224213 | 77 | 202 | 6.0 | 9.0 | 0.00 | 0.00 | 0.00 | 32 | 1012.0 |
| 20260505223710 | 77 | 231 | 7.0 | 16.0 | 0.00 | 0.00 | 0.00 | 34 | 1012.0 |
| 20260505223206 | 77 | 208 | 6.0 | 11.0 | 0.00 | 0.00 | 0.00 | 35 | 1012.3 |
| 20260505222702 | 77 | 221 | 8.0 | 12.0 | 0.00 | 0.00 | 0.00 | 35 | 1012.3 |
| 20260505222158 | 77 | 236 | 8.0 | 17.0 | 0.00 | 0.00 | 0.00 | 35 | 1012.0 |
| 20260505221656 | 78 | 171 | 8.0 | 14.0 | 0.00 | 0.00 | 0.00 | 34 | 1012.3 |
| 20260505221152 | 78 | 213 | 5.0 | 9.0 | 0.00 | 0.00 | 0.00 | 34 | 1012.0 |
| 20260505220649 | 78 | 227 | 8.0 | 12.0 | 0.00 | 0.00 | 0.00 | 33 | 1012.0 |
| 20260505220147 | 77 | 213 | 8.0 | 11.0 | 0.00 | 0.00 | 0.00 | 33 | 1012.0 |
| 20260505215644 | 77 | 198 | 6.0 | 13.0 | 0.00 | 0.00 | 0.00 | 33 | 1012.3 |
| 20260505215142 | 77 | 217 | 9.0 | 12.0 | 0.00 | 0.00 | 0.00 | 32 | 1012.0 |
| 20260505214640 | 77 | 208 | 7.0 | 14.0 | 0.00 | 0.00 | 0.00 | 32 | 1012.0 |
| 20260505214137 | 77 | 206 | 9.0 | 15.0 | 0.00 | 0.00 | 0.00 | 31 | 1012.0 |
| 20260505213634 | 78 | 208 | 6.0 | 11.0 | 0.00 | 0.00 | 0.00 | 31 | 1012.0 |
| 20260505213131 | 78 | 198 | 6.0 | 9.0 | 0.00 | 0.00 | 0.00 | 31 | 1012.0 |
| 20260505212627 | 78 | 233 | 9.0 | 13.0 | 0.00 | 0.00 | 0.00 | 30 | 1012.0 |
| 20260505212125 | 79 | 198 | 6.0 | 11.0 | 0.00 | 0.00 | 0.00 | 30 | 1012.0 |
| 20260505211621 | 79 | 201 | 10.0 | 15.0 | 0.00 | 0.00 | 0.00 | 30 | 1011.6 |
| 20260505211119 | 79 | 225 | 10.0 | 18.0 | 0.00 | 0.00 | 0.00 | 30 | 1012.0 |
| 20260505210615 | 79 | 217 | 9.0 | 16.0 | 0.00 | 0.00 | 0.00 | 29 | 1012.0 |
| 20260505210112 | 79 | 201 | 9.0 | 17.0 | 0.00 | 0.00 | 0.00 | 29 | 1012.0 |
| 20260505205609 | 80 | 198 | 9.0 | 18.0 | 0.00 | 0.00 | 0.00 | 28 | 1012.0 |
| 20260505205107 | 80 | 184 | 11.0 | 16.0 | 0.00 | 0.00 | 0.00 | 28 | 1011.6 |
| 20260505204604 | 81 | 203 | 9.0 | 17.0 | 0.00 | 0.00 | 0.00 | 29 | 1011.6 |
| 20260505204102 | 80 | 220 | 6.0 | 14.0 | 0.00 | 0.00 | 0.00 | 29 | 1012.0 |
| 20260505203558 | 81 | 225 | 12.0 | 21.0 | 0.00 | 0.00 | 0.00 | 29 | 1011.6 |
| 20260505203055 | 81 | 168 | 6.0 | 11.0 | 0.00 | 0.00 | 0.00 | 28 | 1012.0 |
| 20260505202551 | 80 | 228 | 12.0 | 18.0 | 0.00 | 0.00 | 0.00 | 28 | 1011.6 |
| 20260505202047 | 81 | 182 | 9.0 | 13.0 | 0.00 | 0.00 | 0.00 | 26 | 1012.0 |
| 20260505201544 | 82 | 228 | 11.0 | 17.0 | 0.00 | 0.00 | 0.00 | 26 | 1011.6 |
| 20260505201042 | 80 | 204 | 6.0 | 13.0 | 0.00 | 0.00 | 0.00 | 28 | 1012.0 |
| 20260505200540 | 80 | 212 | 7.0 | 10.0 | 0.00 | 0.00 | 0.00 | 29 | 1012.0 |
| 20260505200036 | 80 | 217 | 7.0 | 12.0 | 0.00 | 0.00 | 0.00 | 28 | 1012.3 |
| 20260505195532 | 80 | 208 | 6.0 | 9.0 | 0.00 | 0.00 | 0.00 | 28 | 1012.3 |
| 20260505195030 | 80 | 182 | 5.0 | 9.0 | 0.00 | 0.00 | 0.00 | 28 | 1012.3 |
| 20260505194527 | 79 | 217 | 7.0 | 13.0 | 0.00 | 0.00 | 0.00 | 27 | 1012.3 |
| 20260505194022 | 80 | 214 | 8.0 | 20.0 | 0.00 | 0.00 | 0.00 | 28 | 1012.3 |
| 20260505193520 | 81 | 206 | 8.0 | 12.0 | 0.00 | 0.00 | 0.00 | 27 | 1012.3 |
| 20260505193017 | 81 | 184 | 6.0 | 11.0 | 0.00 | 0.00 | 0.00 | 27 | 1012.3 |
| 20260505192516 | 81 | 208 | 7.0 | 13.0 | 0.00 | 0.00 | 0.00 | 29 | 1012.3 |
| 20260505192013 | 82 | 208 | 6.0 | 11.0 | 0.00 | 0.00 | 0.00 | 30 | 1012.3 |
| 20260505191511 | 82 | 183 | 5.0 | 16.0 | 0.00 | 0.00 | 0.00 | 29 | 1012.3 |
| 20260505191008 | 82 | 193 | 6.0 | 10.0 | 0.00 | 0.00 | 0.00 | 28 | 1012.0 |
| 20260505190502 | 81 | 208 | 10.0 | 15.0 | 0.00 | 0.00 | 0.00 | 26 | 1012.3 |
| 20260505185952 | 82 | 217 | 8.0 | 11.0 | 0.00 | 0.00 | 0.00 | 27 | 1012.3 |
| 20260505185450 | 81 | 210 | 9.0 | 15.0 | 0.00 | 0.00 | 0.00 | 28 | 1012.3 |
| 20260505184946 | 82 | 225 | 9.0 | 15.0 | 0.00 | 0.00 | 0.00 | 31 | 1012.3 |
| 20260505184443 | 81 | 198 | 3.0 | 7.0 | 0.00 | 0.00 | 0.00 | 30 | 1012.6 |
| 20260505183939 | 82 | 198 | 6.0 | 12.0 | 0.00 | 0.00 | 0.00 | 30 | 1012.6 |
| 20260505183437 | 82 | 202 | 7.0 | 13.0 | 0.00 | 0.00 | 0.00 | 31 | 1012.3 |
| 20260505182933 | 80 | 213 | 8.0 | 13.0 | 0.00 | 0.00 | 0.00 | 31 | 1012.6 |
| 20260505182431 | 81 | 176 | 8.0 | 14.0 | 0.00 | 0.00 | 0.00 | 31 | 1012.6 |
| 20260505181926 | 80 | 168 | 5.0 | 9.0 | 0.00 | 0.00 | 0.00 | 32 | 1012.6 |
| 20260505181424 | 81 | 203 | 8.0 | 11.0 | 0.00 | 0.00 | 0.00 | 31 | 1012.6 |
| 20260505180921 | 81 | 187 | 6.0 | 11.0 | 0.00 | 0.00 | 0.00 | 30 | 1012.6 |
| 20260505180417 | 81 | 204 | 7.0 | 11.0 | 0.00 | 0.00 | 0.00 | 31 | 1012.6 |
| 20260505175914 | 81 | 175 | 9.0 | 17.0 | 0.00 | 0.00 | 0.00 | 30 | 1013.0 |
| 20260505175410 | 80 | 204 | 7.0 | 12.0 | 0.00 | 0.00 | 0.00 | 29 | 1013.0 |
| 20260505174907 | 81 | 179 | 9.0 | 13.0 | 0.00 | 0.00 | 0.00 | 30 | 1013.0 |
| 20260505174404 | 81 | 217 | 7.0 | 10.0 | 0.00 | 0.00 | 0.00 | 30 | 1013.0 |
| 20260505173901 | 80 | 232 | 13.0 | 17.0 | 0.00 | 0.00 | 0.00 | 30 | 1013.0 |
| 20260505173357 | 81 | 201 | 7.0 | 9.0 | 0.00 | 0.00 | 0.00 | 31 | 1013.0 |
| 20260505172854 | 80 | 178 | 9.0 | 15.0 | 0.00 | 0.00 | 0.00 | 31 | 1013.0 |
| 20260505172352 | 80 | 221 | 9.0 | 13.0 | 0.00 | 0.00 | 0.00 | 29 | 1013.0 |
| 20260505171851 | 80 | 203 | 8.0 | 11.0 | 0.00 | 0.00 | 0.00 | 29 | 1013.3 |
| 20260505171348 | 80 | 203 | 8.0 | 11.0 | 0.00 | 0.00 | 0.00 | 29 | 1013.3 |
| 20260505170844 | 80 | 180 | 7.0 | 10.0 | 0.00 | 0.00 | 0.00 | 30 | 1013.3 |
| 20260505170342 | 80 | 204 | 6.0 | 15.0 | 0.00 | 0.00 | 0.00 | 31 | 1013.3 |
| 20260505165837 | 80 | 227 | 10.0 | 13.0 | 0.00 | 0.00 | 0.00 | 33 | 1013.3 |
| 20260505165333 | 79 | 233 | 13.0 | 17.0 | 0.00 | 0.00 | 0.00 | 31 | 1013.3 |
| 20260505164829 | 80 | 224 | 9.0 | 15.0 | 0.00 | 0.00 | 0.00 | 32 | 1013.3 |
| 20260505164326 | 80 | 176 | 7.0 | 12.0 | 0.00 | 0.00 | 0.00 | 34 | 1013.3 |
| 20260505163824 | 80 | 238 | 7.0 | 13.0 | 0.00 | 0.00 | 0.00 | 36 | 1013.3 |
| 20260505163322 | 79 | 262 | 7.0 | 11.0 | 0.00 | 0.00 | 0.00 | 35 | 1013.7 |
| 20260505162820 | 79 | 224 | 5.0 | 8.0 | 0.00 | 0.00 | 0.00 | 34 | 1013.7 |
| 20260505162316 | 79 | 241 | 4.0 | 7.0 | 0.00 | 0.00 | 0.00 | 36 | 1013.7 |
| 20260505161814 | 79 | 213 | 9.0 | 15.0 | 0.00 | 0.00 | 0.00 | 35 | 1014.0 |
| 20260505161311 | 79 | 204 | 8.0 | 13.0 | 0.00 | 0.00 | 0.00 | 34 | 1014.0 |
| 20260505160808 | 79 | 204 | 5.0 | 8.0 | 0.00 | 0.00 | 0.00 | 36 | 1014.0 |
| 20260505160306 | 78 | 255 | 10.0 | 14.0 | 0.00 | 0.00 | 0.00 | 36 | 1014.0 |
| 20260505153244 | 78 | 222 | 6.0 | 9.0 | 0.00 | 0.00 | 0.00 | 37 | 1014.3 |
| 20260505152741 | 78 | 244 | 10.0 | 13.0 | 0.00 | 0.00 | 0.00 | 37 | 1014.3 |
| 20260505152237 | 77 | 225 | 10.0 | 13.0 | 0.00 | 0.00 | 0.00 | 37 | 1014.3 |
| 20260505151732 | 78 | 221 | 7.0 | 11.0 | 0.00 | 0.00 | 0.00 | 39 | 1014.0 |
| 20260505151230 | 77 | 163 | 4.0 | 10.0 | 0.00 | 0.00 | 0.00 | 39 | 1014.3 |
| 20260505150726 | 77 | 236 | 7.0 | 12.0 | 0.00 | 0.00 | 0.00 | 43 | 1014.3 |
| 20260505150223 | 76 | 221 | 7.0 | 12.0 | 0.00 | 0.00 | 0.00 | 42 | 1014.3 |
| 20260505140154 | 70 | 113 | 0.0 | 0.0 | 0.00 | 0.00 | 0.00 | 54 | 1014.7 |
| 20260505130117 | 63 | 85 | 1.0 | 3.0 | 0.00 | 0.00 | 0.00 | 65 | 1015.0 |
| 20260505124607 | 61 | 85 | 1.0 | 3.0 | 0.00 | 0.00 | 0.00 | 66 | 1015.0 |
| 20260505124103 | 60 | 340 | 0.0 | 0.0 | 0.00 | 0.00 | 0.00 | 68 | 1015.4 |
| 20260505123559 | 60 | 340 | 0.0 | 0.0 | 0.00 | 0.00 | 0.00 | 71 | 1015.4 |
| 20260505123056 | 59 | 340 | 0.0 | 0.0 | 0.00 | 0.00 | 0.00 | 71 | 1015.4 |
| 20260505122553 | 58 | 340 | 0.0 | 0.0 | 0.00 | 0.00 | 0.00 | 72 | 1015.4 |
| 20260505122050 | 58 | 340 | 0.0 | 0.0 | 0.00 | 0.00 | 0.00 | 72 | 1015.4 |
| 20260505121546 | 58 | 340 | 0.0 | 0.0 | 0.00 | 0.00 | 0.00 | 73 | 1015.4 |
| 20260505121043 | 58 | 340 | 0.0 | 0.0 | 0.00 | 0.00 | 0.00 | 74 | 1015.4 |
| 20260505120540 | 57 | 340 | 0.0 | 0.0 | 0.00 | 0.00 | 0.00 | 77 | 1015.4 |
| 20260505120035 | 56 | 340 | 0.0 | 0.0 | 0.00 | 0.00 | 0.00 | 85 | 1015.4 |
| 20260505115530 | 55 | 340 | 0.0 | 0.0 | 0.00 | 0.00 | 0.00 | 84 | 1015.4 |
| 20260505115028 | 54 | 340 | 0.0 | 0.0 | 0.00 | 0.00 | 0.00 | 88 | 1015.4 |
| 20260505114525 | 53 | 340 | 0.0 | 0.0 | 0.00 | 0.00 | 0.00 | 92 | 1015.4 |
| 20260505114021 | 53 | 340 | 0.0 | 0.0 | 0.00 | 0.00 | 0.00 | 90 | 1015.0 |
| 20260505113518 | 53 | 340 | 0.0 | 0.0 | 0.00 | 0.00 | 0.00 | 90 | 1015.0 |
| 20260505113014 | 52 | 340 | 0.0 | 0.0 | 0.00 | 0.00 | 0.00 | 90 | 1015.0 |
| 20260505112510 | 51 | 340 | 0.0 | 0.0 | 0.00 | 0.00 | 0.00 | 93 | 1015.0 |
| 20260505112008 | 50 | 340 | 0.0 | 0.0 | 0.00 | 0.00 | 0.00 | 94 | 1015.0 |
| 20260505111501 | 49 | 340 | 0.0 | 0.0 | 0.00 | 0.00 | 0.00 | 95 | 1014.7 |
| 20260505110958 | 48 | 340 | 0.0 | 0.0 | 0.00 | 0.00 | 0.00 | 96 | 1014.7 |
| 20260505110455 | 47 | 340 | 0.0 | 4.0 | 0.00 | 0.00 | 0.00 | 97 | 1014.7 |
| 20260505101921 | 47 | 243 | 0.0 | 0.0 | 0.00 | 0.00 | 0.00 | 97 | 1014.0 |
| 20260505101420 | 46 | 243 | 0.0 | 0.0 | 0.00 | 0.00 | 0.00 | 98 | 1014.3 |
| 20260505100916 | 45 | 243 | 0.0 | 0.0 | 0.00 | 0.00 | 0.00 | 98 | 1014.3 |
| 20260505100413 | 46 | 243 | 0.0 | 0.0 | 0.00 | 0.00 | 0.00 | 98 | 1014.3 |
| 20260505095908 | 46 | 243 | 0.0 | 0.0 | 0.00 | 0.00 | 0.00 | 98 | 1014.0 |
| 20260505095406 | 47 | 243 | 0.0 | 0.0 | 0.00 | 0.00 | 0.00 | 98 | 1014.0 |
| 20260505094902 | 47 | 243 | 0.0 | 0.0 | 0.00 | 0.00 | 0.00 | 98 | 1014.0 |
| 20260505094359 | 47 | 243 | 0.0 | 0.0 | 0.00 | 0.00 | 0.00 | 98 | 1014.0 |
| 20260505093855 | 47 | 243 | 0.0 | 0.0 | 0.00 | 0.00 | 0.00 | 98 | 1014.0 |
| 20260505093352 | 47 | 243 | 0.0 | 0.0 | 0.00 | 0.00 | 0.00 | 98 | 1014.0 |
| 20260505092850 | 46 | 243 | 0.0 | 0.0 | 0.00 | 0.00 | 0.00 | 97 | 1014.0 |
| 20260505092348 | 46 | 243 | 0.0 | 0.0 | 0.00 | 0.00 | 0.00 | 97 | 1014.0 |
| 20260505091844 | 47 | 243 | 0.0 | 0.0 | 0.00 | 0.00 | 0.00 | 97 | 1014.0 |
| 20260505091343 | 47 | 243 | 0.0 | 0.0 | 0.00 | 0.00 | 0.00 | 97 | 1014.0 |
| 20260505090840 | 47 | 243 | 0.0 | 0.0 | 0.00 | 0.00 | 0.00 | 97 | 1014.0 |
| 20260505090338 | 47 | 243 | 0.0 | 0.0 | 0.00 | 0.00 | 0.00 | 96 | 1014.0 |
| 20260505085835 | 48 | 243 | 0.0 | 0.0 | 0.00 | 0.00 | 0.00 | 97 | 1014.0 |
| 20260505085333 | 47 | 243 | 0.0 | 0.0 | 0.00 | 0.00 | 0.00 | 97 | 1014.0 |
| 20260505084831 | 46 | 243 | 0.0 | 0.0 | 0.00 | 0.00 | 0.00 | 97 | 1013.7 |
| 20260505084329 | 47 | 243 | 0.0 | 0.0 | 0.00 | 0.00 | 0.00 | 96 | 1013.7 |
| 20260505083826 | 47 | 243 | 0.0 | 0.0 | 0.00 | 0.00 | 0.00 | 96 | 1014.0 |
| 20260505083323 | 47 | 243 | 0.0 | 0.0 | 0.00 | 0.00 | 0.00 | 95 | 1014.0 |
| 20260505082820 | 48 | 243 | 0.0 | 0.0 | 0.00 | 0.00 | 0.00 | 96 | 1013.7 |
| 20260505082316 | 48 | 243 | 0.0 | 0.0 | 0.00 | 0.00 | 0.00 | 95 | 1013.7 |
| 20260505081813 | 48 | 243 | 0.0 | 0.0 | 0.00 | 0.00 | 0.00 | 96 | 1013.7 |
| 20260505081309 | 48 | 243 | 0.0 | 0.0 | 0.00 | 0.00 | 0.00 | 96 | 1013.7 |
| 20260505080806 | 48 | 243 | 0.0 | 0.0 | 0.00 | 0.00 | 0.00 | 97 | 1013.7 |
| 20260505080302 | 48 | 243 | 0.0 | 0.0 | 0.00 | 0.00 | 0.00 | 97 | 1013.7 |
| 20260505075758 | 47 | 243 | 0.0 | 0.0 | 0.00 | 0.00 | 0.00 | 97 | 1013.7 |
| 20260505075255 | 47 | 243 | 0.0 | 0.0 | 0.00 | 0.00 | 0.00 | 97 | 1013.7 |
| 20260505074752 | 48 | 243 | 0.0 | 0.0 | 0.00 | 0.00 | 0.00 | 97 | 1013.7 |
| 20260505074249 | 48 | 243 | 0.0 | 0.0 | 0.00 | 0.00 | 0.00 | 98 | 1013.7 |
| 20260505073747 | 47 | 243 | 0.0 | 0.0 | 0.00 | 0.00 | 0.00 | 98 | 1013.7 |
| 20260505073244 | 47 | 243 | 0.0 | 0.0 | 0.00 | 0.00 | 0.00 | 98 | 1013.7 |
| 20260505072741 | 47 | 243 | 0.0 | 0.0 | 0.00 | 0.00 | 0.00 | 97 | 1013.7 |
| 20260505072237 | 47 | 243 | 0.0 | 0.0 | 0.00 | 0.00 | 0.00 | 97 | 1013.7 |
| 20260505071733 | 48 | 243 | 0.0 | 0.0 | 0.00 | 0.00 | 0.00 | 97 | 1013.3 |
| 20260505071230 | 48 | 243 | 0.0 | 0.0 | 0.00 | 0.00 | 0.00 | 97 | 1013.3 |
| 20260505070728 | 48 | 243 | 0.0 | 0.0 | 0.00 | 0.00 | 0.00 | 97 | 1013.3 |
| 20260505070224 | 48 | 243 | 0.0 | 0.0 | 0.00 | 0.00 | 0.00 | 97 | 1013.3 |
| 20260505065720 | 48 | 243 | 0.0 | 0.0 | 0.00 | 0.00 | 0.00 | 97 | 1013.3 |
| 20260505065217 | 48 | 243 | 0.0 | 0.0 | 0.00 | 0.00 | 0.00 | 96 | 1013.3 |
| 20260505064713 | 48 | 243 | 0.0 | 0.0 | 0.00 | 0.00 | 0.00 | 96 | 1013.3 |
| 20260505064211 | 48 | 243 | 0.0 | 0.0 | 0.00 | 0.00 | 0.00 | 96 | 1013.3 |
| 20260505063709 | 48 | 243 | 0.0 | 0.0 | 0.00 | 0.00 | 0.00 | 96 | 1013.3 |
| 20260505063205 | 48 | 243 | 0.0 | 0.0 | 0.00 | 0.00 | 0.00 | 96 | 1013.3 |
| 20260505062701 | 48 | 243 | 0.0 | 0.0 | 0.00 | 0.00 | 0.00 | 96 | 1013.7 |
| 20260505062159 | 48 | 243 | 0.0 | 0.0 | 0.00 | 0.00 | 0.00 | 96 | 1013.3 |
| 20260505061655 | 48 | 243 | 0.0 | 0.0 | 0.00 | 0.00 | 0.00 | 96 | 1013.3 |
| 20260505061154 | 48 | 243 | 0.0 | 0.0 | 0.00 | 0.00 | 0.00 | 96 | 1013.7 |
| 20260505060651 | 48 | 243 | 0.0 | 0.0 | 0.00 | 0.00 | 0.00 | 96 | 1013.7 |
| 20260505060147 | 48 | 243 | 0.0 | 0.0 | 0.00 | 0.00 | 0.00 | 96 | 1013.7 |
| 20260505055642 | 48 | 243 | 0.0 | 0.0 | 0.00 | 0.00 | 0.00 | 96 | 1013.7 |
| 20260505055140 | 49 | 243 | 0.0 | 0.0 | 0.00 | 0.00 | 0.00 | 96 | 1013.3 |
| 20260505054637 | 48 | 243 | 0.0 | 0.0 | 0.00 | 0.00 | 0.00 | 97 | 1013.3 |
| 20260505054135 | 48 | 243 | 0.0 | 2.0 | 0.00 | 0.00 | 0.00 | 97 | 1013.7 |
| 20260505053632 | 48 | 340 | 0.0 | 0.0 | 0.00 | 0.00 | 0.00 | 97 | 1013.3 |
| 20260505053128 | 48 | 340 | 0.0 | 0.0 | 0.00 | 0.00 | 0.00 | 97 | 1013.3 |
| 20260505052626 | 48 | 340 | 0.0 | 0.0 | 0.00 | 0.00 | 0.00 | 96 | 1013.3 |
| 20260505052123 | 48 | 340 | 0.0 | 0.0 | 0.00 | 0.00 | 0.00 | 96 | 1013.3 |
| 20260505051620 | 48 | 340 | 0.0 | 0.0 | 0.00 | 0.00 | 0.00 | 96 | 1013.3 |
| 20260505051118 | 49 | 340 | 0.0 | 0.0 | 0.00 | 0.00 | 0.00 | 96 | 1013.3 |
| 20260505050615 | 49 | 340 | 0.0 | 0.0 | 0.00 | 0.00 | 0.00 | 96 | 1013.3 |
| 20260505050114 | 49 | 340 | 0.0 | 0.0 | 0.00 | 0.00 | 0.00 | 96 | 1013.3 |
| 20260505041543 | 49 | 340 | 0.0 | 0.0 | 0.00 | 0.00 | 0.00 | 95 | 1013.3 |
| 20260505041041 | 49 | 340 | 0.0 | 0.0 | 0.00 | 0.00 | 0.00 | 94 | 1013.3 |
| 20260505040538 | 49 | 340 | 0.0 | 0.0 | 0.00 | 0.00 | 0.00 | 94 | 1013.3 |
| 20260505040035 | 50 | 340 | 0.0 | 0.0 | 0.00 | 0.00 | 0.00 | 93 | 1013.3 |
| 20260505035531 | 50 | 340 | 0.0 | 0.0 | 0.00 | 0.00 | 0.00 | 93 | 1013.3 |
| 20260505035028 | 50 | 340 | 0.0 | 0.0 | 0.00 | 0.00 | 0.00 | 93 | 1013.3 |
| 20260505034524 | 50 | 340 | 0.0 | 0.0 | 0.00 | 0.00 | 0.00 | 93 | 1013.3 |
| 20260505034021 | 50 | 340 | 0.0 | 0.0 | 0.00 | 0.00 | 0.00 | 92 | 1013.3 |
| 20260505033518 | 51 | 340 | 0.0 | 0.0 | 0.00 | 0.00 | 0.00 | 92 | 1013.3 |
| 20260505033016 | 51 | 340 | 0.0 | 0.0 | 0.00 | 0.00 | 0.00 | 92 | 1013.3 |
| 20260505032513 | 51 | 340 | 0.0 | 0.0 | 0.00 | 0.00 | 0.00 | 90 | 1013.3 |
| 20260505032010 | 52 | 340 | 0.0 | 0.0 | 0.00 | 0.00 | 0.00 | 90 | 1013.3 |
| 20260505031508 | 52 | 340 | 0.0 | 0.0 | 0.00 | 0.00 | 0.00 | 88 | 1013.3 |
| 20260505031004 | 52 | 340 | 0.0 | 0.0 | 0.00 | 0.00 | 0.00 | 88 | 1013.7 |
| 20260505030500 | 52 | 340 | 0.0 | 0.0 | 0.00 | 0.00 | 0.00 | 88 | 1013.3 |
| 20260505025955 | 52 | 340 | 0.0 | 0.0 | 0.00 | 0.00 | 0.00 | 87 | 1013.3 |
| 20260505025453 | 53 | 340 | 0.0 | 0.0 | 0.00 | 0.00 | 0.00 | 89 | 1013.7 |
| 20260505024951 | 52 | 340 | 0.0 | 0.0 | 0.00 | 0.00 | 0.00 | 89 | 1013.7 |
| 20260505024448 | 52 | 340 | 0.0 | 0.0 | 0.00 | 0.00 | 0.00 | 89 | 1013.7 |
| 20260505023945 | 53 | 340 | 0.0 | 0.0 | 0.00 | 0.00 | 0.00 | 88 | 1013.7 |
| 20260505023442 | 53 | 340 | 0.0 | 0.0 | 0.00 | 0.00 | 0.00 | 86 | 1013.3 |
| 20260505022939 | 53 | 340 | 0.0 | 0.0 | 0.00 | 0.00 | 0.00 | 86 | 1013.3 |
| 20260505022437 | 54 | 340 | 0.0 | 0.0 | 0.00 | 0.00 | 0.00 | 86 | 1013.3 |
| 20260505021934 | 54 | 340 | 0.0 | 0.0 | 0.00 | 0.00 | 0.00 | 85 | 1013.7 |
| 20260505021430 | 53 | 340 | 0.0 | 0.0 | 0.00 | 0.00 | 0.00 | 85 | 1013.7 |
| 20260505020926 | 54 | 340 | 0.0 | 0.0 | 0.00 | 0.00 | 0.00 | 84 | 1013.7 |
| 20260505020422 | 55 | 340 | 0.0 | 0.0 | 0.00 | 0.00 | 0.00 | 81 | 1013.7 |
| 20260505015919 | 55 | 340 | 0.0 | 3.0 | 0.00 | 0.00 | 0.00 | 81 | 1013.7 |
| 20260505015416 | 55 | 340 | 0.0 | 0.0 | 0.00 | 0.00 | 0.00 | 82 | 1013.7 |
| 20260505014913 | 55 | 340 | 0.0 | 0.0 | 0.00 | 0.00 | 0.00 | 81 | 1013.7 |
| 20260505014410 | 56 | 340 | 0.0 | 0.0 | 0.00 | 0.00 | 0.00 | 78 | 1013.7 |
| 20260505013907 | 56 | 334 | 0.0 | 0.0 | 0.00 | 0.00 | 0.00 | 79 | 1013.7 |
| 20260505013404 | 55 | 334 | 0.0 | 3.0 | 0.00 | 0.00 | 0.00 | 81 | 1013.3 |
| 20260505012902 | 55 | 334 | 0.0 | 0.0 | 0.00 | 0.00 | 0.00 | 82 | 1013.3 |
| 20260505012400 | 55 | 334 | 0.0 | 3.0 | 0.00 | 0.00 | 0.00 | 83 | 1013.3 |
| 20260505011855 | 56 | 302 | 0.0 | 0.0 | 0.00 | 0.00 | 0.00 | 81 | 1013.3 |
| 20260505011352 | 57 | 243 | 0.0 | 0.0 | 0.00 | 0.00 | 0.00 | 80 | 1013.3 |
| 20260505010849 | 58 | 243 | 0.0 | 0.0 | 0.00 | 0.00 | 0.00 | 77 | 1013.3 |
| 20260505010345 | 59 | 243 | 0.0 | 0.0 | 0.00 | 0.00 | 0.00 | 77 | 1013.3 |
| 20260505005841 | 59 | 243 | 0.0 | 0.0 | 0.00 | 0.00 | 0.00 | 80 | 1013.0 |
| 20260505005338 | 59 | 243 | 0.0 | 0.0 | 0.00 | 0.00 | 0.00 | 79 | 1013.3 |
| 20260505004836 | 59 | 243 | 0.0 | 0.0 | 0.00 | 0.00 | 0.00 | 77 | 1013.0 |
| 20260505004331 | 59 | 243 | 0.0 | 0.0 | 0.00 | 0.00 | 0.00 | 76 | 1013.0 |
| 20260505003829 | 60 | 243 | 0.0 | 0.0 | 0.00 | 0.00 | 0.00 | 73 | 1013.0 |
| 20260505003326 | 60 | 243 | 0.0 | 0.0 | 0.00 | 0.00 | 0.00 | 73 | 1013.0 |
| 20260505002822 | 60 | 243 | 0.0 | 0.0 | 0.00 | 0.00 | 0.00 | 72 | 1013.0 |
| 20260505002319 | 60 | 243 | 0.0 | 0.0 | 0.00 | 0.00 | 0.00 | 74 | 1013.0 |
| 20260505001818 | 60 | 243 | 0.0 | 0.0 | 0.00 | 0.00 | 0.00 | 76 | 1013.0 |
| 20260505001314 | 60 | 243 | 0.0 | 0.0 | 0.00 | 0.00 | 0.00 | 75 | 1013.0 |
| 20260505000812 | 61 | 243 | 0.0 | 0.0 | 0.00 | 0.00 | 0.00 | 74 | 1013.0 |
| 20260505000310 | 62 | 243 | 0.0 | 0.0 | 0.00 | 0.00 | 0.00 | 70 | 1012.6 |
| 20260504235806 | 63 | 243 | 0.0 | 0.0 | 0.00 | 0.00 | 0.00 | 70 | 1012.6 |
| 20260504235304 | 63 | 243 | 0.0 | 0.0 | 0.00 | 0.00 | 0.00 | 69 | 1012.6 |